Location: Piotrkow Trybunalski
(51.4000°N, 19.6830°E)
Time: 08:52:23
(UTC+01:00)

BlueWalker 3 - Pass Details

Date: 01 December 2022
Orbit: 499 x 517 km, 53.2° (Epoch: 29 January)

Event Time Altitude Azimuth Distance (km) Brightness Sun altitude
Rises 17:13:56 0° 264° (W) 2,630 7.3 -14.5°
Reaches altitude 10° 17:16:08 10° 267° (W) 1,741 6.0 -14.8°
Maximum altitude 17:20:04 71° 351° (N) 547 2.0 -15.4°
Enters shadow 17:21:48 31° 68° (ENE) 911 2.6 -15.6°
